Cody, WY

12:10 AM MDT on May 30, 2017 (GMT -0600)
Yellowstone Regional

Weather History for KCOD - August, 2012

Change the Weather History Date:

Sunday, August 5, 2012

  Actual Average Record
Temperature  
Mean Temperature 72 °F -  
Max Temperature 91 °F 84 °F 103 °F (1961)
Min Temperature 53 °F 55 °F 43 °F (1944)
Cooling Degree Days 7    
Growing Degree Days 22 (Base 50)    
Moisture  
Dew Point 35 °F    
Average Humidity 25    
Maximum Humidity 54    
Minimum Humidity 11    
Precipitation  
Precipitation 0.00 in - - ()
Sea Level Pressure  
Sea Level Pressure 30.18 in    
Wind  
Wind Speed 6 mph (East)    
Max Wind Speed 13 mph    
Max Gust Speed 16 mph    
Visibility 10 miles    
Events      
Averages and records for this station are not official NWS values.
T = Trace of Precipitation, MM = Missing Value Source: NWS Daily Summary

Daily Weather History Graph

Daily Weather History Graph

Search for Another Location

Airport or City:

Trip Planner

Search our weather history database for the weather conditions in past years. The results will help you decide how hot, cold, wet, or windy it might be!

Date:

Astronomy

Aug. 05, 2012 Rise Set
Actual Time 6:07 AM MDT 8:35 PM MDT
Civil Twilight 5:35 AM MDT 9:07 PM MDT
Nautical Twilight 4:54 AM MDT 9:48 PM MDT
Astronomical Twilight 4:07 AM MDT 10:34 PM MDT
Moon 10:01 PM MDT (8/5) 10:12 AM MDT (8/5)
Length of Visible Light 15h 32m
Length of Day
14h 27m
Waning Gibbous, 86% of the Moon is Illuminated
Aug 5
Waning Gibbous
Aug 9
Last Quarter
Aug 17
New
Aug 24
First Quarter
Aug 31
Full

Hourly Weather History & Observations

Time (MDT) Temp. Dew Point Humidity Pressure Visibility Wind Dir Wind Speed Gust Speed Precip Events Conditions
12:15 AM 59.0 °F 32.0 °F 36% 30.24 in 10.0 mi SSE 6.9 mph - N/A   Clear
12:35 AM 60.8 °F 32.0 °F 34% 30.24 in 10.0 mi South 6.9 mph - N/A   Clear
12:55 AM 59.0 °F 32.0 °F 36% 30.24 in 10.0 mi SSE 6.9 mph - N/A   Clear
1:15 AM 60.8 °F 37.4 °F 42% 30.23 in 10.0 mi SSW 6.9 mph - N/A   Clear
4:55 AM 59.0 °F 35.6 °F 42% 30.20 in 10.0 mi SW 6.9 mph - N/A   Clear
5:15 AM 59.0 °F 35.6 °F 42% 30.21 in 10.0 mi SW 5.8 mph - N/A   Clear
5:55 AM 57.2 °F 35.6 °F 44% 30.21 in 10.0 mi SW 4.6 mph - N/A   Clear
6:15 AM 57.2 °F 35.6 °F 44% 30.21 in 10.0 mi South 10.4 mph - N/A   Clear
6:35 AM 57.2 °F 35.6 °F 44% 30.21 in 10.0 mi SSW 12.7 mph - N/A   Clear
6:55 AM 57.2 °F 35.6 °F 44% 30.21 in 10.0 mi Calm Calm - N/A   Clear
7:15 AM 53.6 °F 37.4 °F 54% 30.21 in 10.0 mi NNE 3.5 mph - N/A   Clear
7:35 AM 60.8 °F 35.6 °F 39% 30.21 in 10.0 mi South 3.5 mph - N/A   Clear
7:55 AM 64.4 °F 35.6 °F 34% 30.21 in 10.0 mi South 4.6 mph - N/A   Clear
8:15 AM 60.8 °F 37.4 °F 42% 30.22 in 10.0 mi Calm Calm - N/A   Clear
8:35 AM 64.4 °F 39.2 °F 40% 30.22 in 10.0 mi Calm Calm - N/A   Clear
8:55 AM 64.4 °F 39.2 °F 40% 30.22 in 10.0 mi NNW 3.5 mph - N/A   Clear
9:15 AM 64.4 °F 37.4 °F 37% 30.23 in 10.0 mi NE 3.5 mph - N/A   Clear
9:35 AM 69.8 °F 35.6 °F 28% 30.22 in 10.0 mi Calm Calm - N/A   Clear
9:55 AM 71.6 °F 35.6 °F 27% 30.21 in 10.0 mi Calm Calm - N/A   Clear
10:15 AM 73.4 °F 35.6 °F 25% 30.21 in 10.0 mi Calm Calm - N/A   Clear
10:35 AM 75.2 °F 37.4 °F 25% 30.21 in 10.0 mi Calm Calm - N/A   Clear
10:55 AM 77.0 °F 37.4 °F 24% 30.20 in 10.0 mi North 5.8 mph - N/A   Clear
11:15 AM 78.8 °F 39.2 °F 24% 30.20 in 10.0 mi North 5.8 mph - N/A   Clear
11:35 AM 80.6 °F 35.6 °F 20% 30.20 in 10.0 mi NE 5.8 mph - N/A   Clear
11:55 AM 80.6 °F 39.2 °F 23% 30.19 in 10.0 mi NE 9.2 mph - N/A   Clear
12:15 PM 80.6 °F 41.0 °F 24% 30.18 in 10.0 mi NNE 10.4 mph - N/A   Clear
12:35 PM 82.4 °F 41.0 °F 23% 30.18 in 10.0 mi NNE 10.4 mph - N/A   Clear
1:15 PM 84.2 °F 37.4 °F 19% 30.17 in 10.0 mi North 3.5 mph - N/A   Clear
1:35 PM 87.8 °F 33.8 °F 15% 30.16 in 9.0 mi ESE 6.9 mph - N/A   Clear
1:55 PM 87.8 °F 32.0 °F 14% 30.16 in 10.0 mi ESE 10.4 mph - N/A   Clear
2:15 PM 87.8 °F 32.0 °F 14% 30.15 in 8.0 mi East 10.4 mph - N/A   Clear
2:35 PM 89.6 °F 32.0 °F 13% 30.15 in 8.0 mi ESE 5.8 mph - N/A   Clear
2:55 PM 89.6 °F 30.2 °F 12% 30.14 in 4.0 mi East 8.1 mph - N/A   Clear
3:15 PM 89.6 °F 30.2 °F 12% 30.14 in 8.0 mi NE 5.8 mph - N/A   Clear
3:35 PM 91.4 °F 32.0 °F 12% 30.13 in 6.0 mi SE 9.2 mph 16.1 mph N/A   Clear
3:55 PM 89.6 °F 33.8 °F 14% 30.13 in 10.0 mi ENE 9.2 mph - N/A   Clear
4:15 PM 91.4 °F 30.2 °F 11% 30.13 in 10.0 mi East 10.4 mph - N/A   Clear
4:35 PM 89.6 °F 30.2 °F 12% 30.12 in 10.0 mi ENE 6.9 mph - N/A   Clear
4:55 PM 89.6 °F 30.2 °F 12% 30.12 in 10.0 mi ENE 5.8 mph - N/A   Clear
5:15 PM 89.6 °F 30.2 °F 12% 30.12 in 10.0 mi East 6.9 mph - N/A   Clear
5:35 PM 91.4 °F 30.2 °F 11% 30.12 in 10.0 mi ESE 6.9 mph - N/A   Clear
5:55 PM 89.6 °F 30.2 °F 12% 30.12 in 10.0 mi East 9.2 mph - N/A   Clear
6:15 PM 89.6 °F 30.2 °F 12% 30.12 in 10.0 mi East 10.4 mph - N/A   Clear
6:35 PM 89.6 °F 30.2 °F 12% 30.12 in 10.0 mi SE 6.9 mph - N/A   Clear
6:55 PM 87.8 °F 35.6 °F 16% 30.12 in 10.0 mi NE 5.8 mph - N/A   Clear
7:15 PM 84.2 °F 39.2 °F 20% 30.12 in 10.0 mi North 10.4 mph - N/A   Clear
7:35 PM 84.2 °F 33.8 °F 16% 30.13 in 10.0 mi NNE 4.6 mph - N/A   Clear
7:55 PM 80.6 °F 35.6 °F 20% 30.13 in 10.0 mi North 5.8 mph - N/A   Clear
8:15 PM 80.6 °F 35.6 °F 20% 30.14 in 10.0 mi NNE 4.6 mph - N/A   Clear
8:35 PM 78.8 °F 35.6 °F 21% 30.14 in 10.0 mi Calm Calm - N/A   Clear
8:55 PM 78.8 °F 33.8 °F 20% 30.15 in 10.0 mi West 4.6 mph - N/A   Clear
9:15 PM 78.8 °F 33.8 °F 20% 30.16 in 10.0 mi WNW 5.8 mph - N/A   Clear
9:35 PM 75.2 °F 35.6 °F 24% 30.17 in 10.0 mi Calm Calm - N/A   Clear
9:55 PM 73.4 °F 35.6 °F 25% 30.17 in 10.0 mi Calm Calm - N/A   Clear
10:15 PM 73.4 °F 33.8 °F 23% 30.17 in 10.0 mi South 3.5 mph - N/A   Clear
10:35 PM 69.8 °F 35.6 °F 28% 30.18 in 10.0 mi South 5.8 mph - N/A   Clear
10:55 PM 68.0 °F 32.0 °F 26% 30.18 in 10.0 mi Calm Calm - N/A   Clear
11:15 PM 64.4 °F 32.0 °F 30% 30.18 in 10.0 mi South 9.2 mph - N/A   Clear
11:35 PM 66.2 °F 30.2 °F 26% 30.18 in 10.0 mi South 3.5 mph - N/A   Clear
11:55 PM 68.0 °F 32.0 °F 26% 30.18 in 10.0 mi Calm Calm - N/A   Clear